Showing default

PICO-01A003, 58326

Orbit data source: Space-Track

PICO-01A003, 58326 is a payload satellite owned by Apogeo Space (IT) in SSO that was launched on Sat, 11 Nov 2023 UTC via an FALCON 9 launch vehicle from the Air Force Western Test Range (AFWTR). Payload-class satellites include a variety of spacecraft equipped with specific instruments for various scientific and technological missions. These include communications satellites like Starlink; space stations such as the ISS; scientific satellites like the Hubble; Earth observation satellites from companies like Planet Labs, Umbra, and HawkEye 360; GPS; miniature CubeSats for education and research; and military/defense satellites.

Loading next visibility...
Identifier
58326, 2023-174BY
Orbit
SSO
Country
Flag of ITIT
Related business
Manufacturer
Apogeo Space
Mission
Operational Commercial Communications
Bus & Motor
CUBESAT 0.3U, Unknown motor
Mass
0.5 kg wet, 0.5 kg dry
Launch date (UTC)
2023-11-11 (3 years ago)
Launch vehicle
FALCON 9
Launch site
Air Force Western Test Range (AFWTR)
Object type
Payload
Rocket body
Debris
Shape & HBR
Box, 0.1 m
Radar Cross Section
0.008 m², Medium (>0.1 m² and < 1m²)

Expand to show TLE details & history
Last TLE update: 6 hours ago

TLE from 6 hours ago
0 PICO-01A003
1 58326U 23174BY  26237.58387389  .00021912  00000-0  40978-3 0  9998
2 58326  97.3768 324.2913 0003725 262.1429  97.9399 15.48736567156148
Epoch: 2026-08-25T14:00Z
TLE epoch observation values (Epoch: 2026-08-25T14:00:46.704Z)
Latitude
0.00001°
Longitude
140.24757°
Altitude
423.902 km
Speed
7.657 km/s
True Right ascension
21h 37m 09s
True Declination
0° 00' 00"
Sunlit
Object was in full shadow at epoch
Visualization orbit readout
Latitude
Unknown
Longitude
Unknown
Altitude
Unknown
Speed
Unknown
Apparent Right ascension
Unknown
Apparent Declination
Unknown
Sunlit
N/A
Visualization observer readout
Local Sidereal Time
11:01:54
Azimuth
Unknown
Elevation
Unknown
Doppler factor
Unknown
Orbital elements
Apogee altitude
419.879 km
Perigee altitude
414.816 km
Semi-major axis
6,795.484 km
Eccentricity
0.00037
Inclination
97.3768°
RAAN
324.2913°
Arg. of periapsis
262.1429°
True anomaly
97.98217°
Mean anomaly
97.9399°
Eccentric anomaly
97.96104°
Mean motion
3.87447 °/min
Orbital period
92.92 mins
BSTAR
0.00040978
Loading maneuver chart data...
Computing Atmospheric mass density...

Documentation

Showing up to 5 results
|